Location: Dal�� Lhota
(48.7500°N, 14.0167°E)
Time: 01:28:08
(UTC+00:00)

Cosmos 2285 Rocket - Pass Details

Date: 24 September 2020
Orbit: 970 x 1000 km, 74.0° (Epoch: 29 October)

Event Time Altitude Azimuth Distance (km) Brightness Sun altitude
Rises 18:49:33 0° 205° (SSW) 3,656 7.1 -19.0°
Reaches altitude 10° 18:52:04 10° 207° (SSW) 2,715 6.4 -19.4°
Maximum altitude 18:58:22 79° 294° (WNW) 1,002 4.1 -20.3°
Drops below altitude 10° 19:04:46 10° 22° (NNE) 2,752 6.4 -21.3°
Sets 19:07:21 0° 23° (NNE) 3,708 7.1 -21.7°
